Cloud_Cover
59 94 100 100 100 7 4 28 5 57 58 78 86 14 9 12 0 2 35 8 0 10 24 15 0 4 5 5 5 5 5 5 5 46 100 100 100 100 100 78 23 88 94 97 95 100 100 100 100
33 16 100 100 100 5 2 5 15 16 66 82 77 24 32 54 90 80 23 2 0 14 20 1 0 4 4 5 10 5 23 96 67 30 81 69 28 13 83 100 100 94 96 100 100 100 100 76 66
97 61 100 92 9 5 5 98 56 7 16 13 30 11 52 39 65 7 9 14 8 29 34 18 10 6 5 12 15 92 73 90 98 39 5 48 10 5 32 48 45 5 65 100 100 96 74 76 78
57 64 70 86 5 6 22 58 100 44 13 34 5 12 69 33 5 18 0 12 12 32 29 1 3 7 4 5 5 5 46 6 20 5 34 80 88 83 50 9 99 100 87 99 96 100 6 60 82
100 100 26 5 5 78 91 73 5 94 51 7 19 90 94 28 23 0 0 3 12 25 29 7 4 8 13 4 4 3 5 5 8 8 68 99 100 100 90 24 6 45 5 31 5 5 5 97 98
100 42 96 100 41 72 56 6 24 100 95 55 16 5 98 77 6 0 2 3 28 5 22 6 2 0 1 3 3 5 5 5 27 39 5 39 77 5 5 5 5 5 5 12 7 18 54 38 71
100 96 91 23 5 93 64 32 63 100 100 7 63 5 87 78 5 2 7 11 34 8 34 37 2 9 12 5 5 7 6 23 83 70 73 5 6 85 58 12 5 96 55 5 5 5 5 12 5
93 100 20 32 9 5 49 46 99 64 100 60 5 5 94 36 5 10 24 41 37 15 20 9 11 9 5 5 5 6 5 48 81 47 100 99 100 100 97 100 100 100 100 12 63 6 5 5 5
99 98 100 98 80 10 13 33 76 56 100 91 5 5 5 20 9 3 31 52 6 38 47 1 9 6 4 25 3 5 5 44 78 6 100 100 93 55 8 37 49 97 100 83 50 85 9 11 4
100 88 100 94 33 80 99 54 96 70 100 100 50 5 12 17 4 5 10 1 0 5 10 0 0 0 0 19 28 39 14 55 12 97 39 5 10 3 0 1 26 87 50 100 86 66 62 0 0
100 100 100 87 80 58 63 100 78 100 100 100 41 100 8 9 12 5 8 0 4 1 4 0 0 0 0 8 5 1 6 6 6 7 5 0 0 0 0 4 17 4 0 0 0 0 0 0 0
47 100 95 100 67 91 100 90 100 100 100 100 100 53 5 5 5 5 4 3 1 4 3 0 0 0 0 0 0 0 0 0 3 3 0 0 0 0 0 0 12 7 0 0 0 0 0 0 0
5 66 99 95 92 52 100 100 100 98 99 100 100 9 1 4 10 5 5 7 5 4 5 0 0 0 0 0 0 0 0 0 0 0 0 0 0 0 0 0 0 0 0 0 0 0 0 0 0
5 5 10 52 92 59 100 90 98 100 100 100 100 96 14 4 4 4 5 5 5 3 0 0 0 0 0 0 0 0 0 0 0 0 0 0 0 0 0 0 0 0 0 0 0 0 0 0 0
5 5 5 5 5 100 100 66 99 100 96 100 89 96 61 100 8 12 5 5 0 1 0 0 0 0 0 0 0 0 0 0 0 0 0 0 0 0 0 0 0 0 0 0 0 0 0 0 0
5 5 2 5 3 7 98 100 83 100 100 87 96 77 90 25 80 5 5 10 5 4 1 1 0 0 0 0 0 0 0 0 0 0 0 0 0 0 0 0 0 0 0 0 0 0 0 0 0
5 4 1 0 0 0 8 78 10 9 6 25 99 97 100 100 85 33 7 33 9 4 15 5 0 0 0 0 0 0 0 0 0 0 0 0 0 0 0 0 0 0 0 0 0 0 0 0 0
5 5 0 0 0 0 0 1 4 0 5 19 11 54 100 100 87 72 100 90 100 52 36 5 4 0 2 0 0 0 0 0 0 0 0 0 0 0 0 0 0 0 0 0 0 0 0 0 0
0 5 3 0 0 0 0 0 0 41 6 14 7 5 5 0 0 81 87 100 100 100 19 5 6 5 0 0 0 0 0 0 0 0 0 0 0 0 0 0 0 0 0 0 0 0 0 0 0
1 4 5 5 0 0 0 0 0 0 5 13 78 5 5 44 0 100 73 100 100 96 100 26 5 5 17 0 0 0 0 0 0 0 0 0 0 0 0 0 0 0 0 0 0 0 0 0 0
9 0 5 5 3 0 0 0 0 0 5 5 6 5 5 67 85 42 92 100 100 100 100 67 13 16 100 0 0 0 0 0 0 0 0 0 0 0 0 0 0 0 0 0 0 0 0 0 0
76 6 40 5 5 0 0 0 0 0 5 5 28 8 5 78 60 100 99 100 100 100 100 100 69 100 100 48 0 0 0 0 0 0 0 0 0 0 0 0 0 0 0 0 0 0 0 0 0
5 5 66 6 5 3 0 0 0 0 1 23 58 26 77 72 5 100 24 98 100 100 100 82 82 99 100 100 100 67 0 0 0 0 0 0 0 0 0 0 0 0 0 0 0 0 0 0 0
22 83 8 12 5 54 0 0 0 0 0 0 3 5 35 5 18 93 77 97 100 100 100 100 25 37 100 100 100 100 7 49 1 0 0 0 0 0 0 0 0 0 0 0 0 0 0 0 0
4 75 70 40 34 8 0 0 0 0 0 0 0 0 4 1 7 44 81 56 53 100 100 63 44 100 61 100 100 86 5 75 62 21 0 0 0 0 0 0 0 0 0 0 0 0 0 0 0
0 1 46 5 5 0 5 0 2 3 0 2 0 1 4 9 55 100 76 100 43 66 11 99 100 100 100 100 100 100 99 86 91 84 55 5 0 0 0 0 0 0 0 0 0 0 0 0 0
0 0 0 2 2 0 2 0 5 5 1 5 5 0 0 0 27 75 100 100 99 88 99 100 36 9 70 100 97 100 100 100 100 74 2 98 86 98 3 0 0 0 0 0 0 0 0 0 0
0 0 0 0 0 0 2 0 15 4 5 3 0 0 0 0 5 98 100 100 100 100 100 100 98 69 100 75 64 100 100 100 100 100 54 100 99 100 80 3 0 0 0 0 0 0 0 0 0
0 0 0 0 0 0 0 0 77 17 5 4 0 0 0 0 0 13 92 100 100 100 100 100 100 100 98 6 69 99 100 100 100 100 100 69 100 100 28 37 4 0 0 0 0 0 0 0 0
0 0 0 0 0 0 0 0 0 96 81 76 5 4 5 5 3 13 92 100 100 100 100 100 100 100 100 100 100 47 99 100 100 100 100 100 98 22 92 11 15 0 0 0 0 0 0 0 0